NOVASAR 1

Satellite information

Favourite Embed

Satellite Type and Status

PAYLOADIN ORBIT

Key statistics

Satellite NOVASAR 1 at a glance.

Uptime

2606

Days in orbit

Revolutions

≈ 15.0

Per day

Orbit

SSO

Sun Synchronous Orbit

Inclination

97.5

Latest

Satellite identification and parameters

Extended collection of information and parameters for NOVASAR 1.

Object identification

Identified? True

Debris? False

Object name: NOVASAR 1

International designator: 2018-071B

Object number (NORAD): 43619

Object ID (CCSDS): 43619

Country: UNITED KINGDOM (UK)

Current information (Y/N): Y

RCS size: LARGE

Orbital parameters

Period: 96.244 minutes

Inclination: 97.5342 deg

SMA: 6956.786 km

Apoapsis: 580.157 km

Periapsis: 577.144 km

RAAN: 183.9045 deg

Eccentricy: 0.0002166

Argument of periapsis: 117.5498 deg

Mean anomaly: 242.5944 deg

Mean motion: 14.96200631 rev/day

Mean motion (dot): 0.00001132 rev/day2

B* drag term: 0.0001053 1/REarth

Two-line elements (TLE)

Creation date: Nov. 3, 2025, 11:16 p.m.

Reference frame: TEME

Reference center: EARTH

Epoch: Nov. 3, 2025, 7:31 p.m. UTC

TLE line 0: 0 NOVASAR 1

TLE line 1: 1 43619U 18071B 25307.81364631 .00001132 00000-0 10530-3 0 9998

TLE line 2: 2 43619 97.5342 183.9045 0002166 117.5498 242.5944 14.96200631389232

Live tracking on map

Real-time ground track for satellite NOVASAR 1.

In-orbit conjunctions

There are no conjunctions computed for NOVASAR 1, at the moment. Check back to stay up to date, as we update our databases every day.

Go to all conjunctions

Associated space launch

The NovaSAR-S spacecraft carries a radar imaging instrument, and the mission was developed in partnership between the British government and the British satellite manufacturer SSTL. The SSTL-S1 satellite, also built by SSTL, is a high-resolution optical Earth observation satellite identical to three DMC3/TripleSat reconnaissance craft launched in 2015. Beijing-based 21AT will lease imaging capacity on the SSTL-S1 satellite. There are also several secondary payloads.

NOVASAR 1 was lifted into orbit during the mission ‘PSLV-CA | SSTL-S1 & NovaSAR-S’, on board a PSLV space rocket.

The launch took place on Sept. 16, 2018, 4:38 p.m. from Satish Dhawan Space Centre First Launch Pad.

For more information about the launch, click the button.

Launch to space PSLV-CA | SSTL-S1 & NovaSAR-S
PSLV-CA | SSTL-S1 & NovaSAR-S

Agency: N/A

Status: Launch Successful

Launch date: Sept. 16, 2018, 4:38 p.m. UTC

Rocket: PSLV

Launch pad: Satish Dhawan Space Centre First Launch Pad

Location: Satish Dhawan Space Centre, India

...

Latest news about this satellite

There are no fresh news available about this satellite. Check back as we update our databases every day.


Newsletter sign-up

Weekly statistics, charts and insights to help you stay on top of the space industry.